Torna al catalogo

YZ-1S DEB

AttivoSSO
NORAD 43644·DEBRIS·🇨🇳 China

Lanciato Oct 9, 2018 da Jiuquan Satellite Launch Center

Loading…

Prossimi Passaggi (prossime 24 ore)

TLE

AggiornatoSource: Space-Track

Epoca: Sep 14, 2026, 13:26 UTC

1 43644U 18077C   26257.56024921  .00001502  00000-0  24257-3 0  9996
2 43644  97.9137 297.4526 0008096 129.3835 230.8091 14.72777383423795

Traccia YZ-1S DEB in tempo reale con AllMySat

Download on the App Store